E27IHO-13 Weather Reports


time (UTC)temp
C
wind
direction
speed
KPH
gust
KPH
rain 1hr
cm
rain 24hr
cm
rain mn
cm
humidity
%
barometer
mb
20260508092546 27 0 0.0 0.0 0.00 0.00 0.00 99 1007.0
20260508092021 27 0 0.0 0.0 0.00 0.00 0.00 99 1007.0
20260508091500 27 0 0.0 0.0 0.00 0.00 0.00 99 1007.0
20260508090939 27 0 0.0 0.0 0.00 0.00 0.00 99 1007.0
20260508090415 27 0 0.0 0.0 0.00 0.00 0.00 99 1008.0
20260508085853 30 0 0.0 0.0 0.00 0.00 0.00 99 1008.0
20260508085331 33 0 0.0 0.0 0.00 0.00 0.00 52 1007.0
20260508084809 35 0 0.0 0.0 0.00 0.00 0.00 51 1007.0
20260508084247 34 0 0.0 0.0 0.00 0.00 0.00 54 1006.0
20260508083725 36 0 0.0 0.0 0.00 0.00 0.00 51 1006.0
20260508083203 36 0 0.0 0.0 0.00 0.00 0.00 50 1006.0
20260508082641 37 0 0.0 0.0 0.00 0.00 0.00 48 1006.0
20260508082119 38 0 0.0 0.0 0.00 0.00 0.00 45 1006.0
20260508081557 38 0 0.0 0.0 0.00 0.00 0.00 44 1006.0
20260508081035 38 0 0.0 0.0 0.00 0.00 0.00 45 1006.0
20260508080513 38 0 0.0 0.0 0.00 0.00 0.00 44 1006.0
20260508075951 38 0 0.0 0.0 0.00 0.00 0.00 45 1006.0
20260508075429 38 0 0.0 0.0 0.00 0.00 0.00 46 1006.0
20260508074907 37 0 0.0 0.0 0.00 0.00 0.00 49 1006.0
20260508074345 37 0 0.0 0.0 0.00 0.00 0.00 47 1006.0
20260508073823 36 0 0.0 0.0 0.00 0.00 0.00 49 1006.0
20260508073301 36 0 0.0 0.0 0.00 0.00 0.00 52 1006.0
20260508072657 36 0 0.0 0.0 0.00 0.00 0.00 51 1006.0
20260508072135 37 0 0.0 0.0 0.00 0.00 0.00 49 1006.0
20260508071613 37 0 0.0 0.0 0.00 0.00 0.00 50 1006.0
20260508071051 37 0 0.0 0.0 0.00 0.00 0.00 49 1007.0
20260508070529 36 0 0.0 0.0 0.00 0.00 0.00 52 1007.0
20260508070012 37 0 0.0 0.0 0.00 0.00 0.00 51 1007.0
20260508065450 36 0 0.0 0.0 0.00 0.00 0.00 51 1007.0
20260508064928 37 0 0.0 0.0 0.00 0.00 0.00 53 1007.0
20260508064406 36 0 0.0 0.0 0.00 0.00 0.00 52 1007.0
20260508063844 36 0 0.0 0.0 0.00 0.00 0.00 53 1007.0
20260508063322 36 0 0.0 0.0 0.00 0.00 0.00 54 1008.0
20260508062800 36 0 0.0 0.0 0.00 0.00 0.00 54 1008.0
20260508062238 36 0 0.0 0.0 0.00 0.00 0.00 53 1008.0
20260508062052 36 0 0.0 0.0 0.00 0.00 0.00 52 1008.0
20260508061530 36 0 0.0 0.0 0.00 0.00 0.00 52 1008.0
20260508061008 36 0 0.0 0.0 0.00 0.00 0.00 51 1008.0
20260508060446 36 0 0.0 0.0 0.00 0.00 0.00 52 1008.0
20260508055924 36 0 0.0 0.0 0.00 0.00 0.00 51 1008.0
20260508055402 36 0 0.0 0.0 0.00 0.00 0.00 51 1008.0
20260508054840 36 0 0.0 0.0 0.00 0.00 0.00 54 1008.0
20260508054318 36 0 0.0 0.0 0.00 0.00 0.00 54 1008.0
20260508053756 35 0 0.0 0.0 0.00 0.00 0.00 55 1009.0
20260508053234 35 0 0.0 0.0 0.00 0.00 0.00 55 1009.0
20260508052712 36 0 0.0 0.0 0.00 0.00 0.00 54 1009.0
20260508052150 36 0 0.0 0.0 0.00 0.00 0.00 54 1009.0
20260508051628 36 0 0.0 0.0 0.00 0.00 0.00 53 1009.0
20260508041527 34 0 0.0 0.0 0.00 0.00 0.00 61 1010.0
20260508041005 33 0 0.0 0.0 0.00 0.00 0.00 63 1011.0
20260508040443 33 0 0.0 0.0 0.00 0.00 0.00 61 1011.0
20260508035921 34 0 0.0 0.0 0.00 0.00 0.00 60 1011.0
20260508035432 34 0 0.0 0.0 0.00 0.00 0.00 58 1011.0
20260508034911 34 0 0.0 0.0 0.00 0.00 0.00 59 1010.0
20260508034349 35 0 0.0 0.0 0.00 0.00 0.00 57 1011.0
20260508033827 35 0 0.0 0.0 0.00 0.00 0.00 56 1011.0
20260508033305 35 0 0.0 0.0 0.00 0.00 0.00 57 1011.0
20260508032742 34 0 0.0 0.0 0.00 0.00 0.00 59 1011.0
20260508032220 34 0 0.0 0.0 0.00 0.00 0.00 59 1011.0
20260508031658 34 0 0.0 0.0 0.00 0.00 0.00 56 1011.0
20260508031136 33 0 0.0 0.0 0.00 0.00 0.00 59 1011.0
20260508030614 33 0 0.0 0.0 0.00 0.00 0.00 59 1011.0
20260508030052 33 0 0.0 0.0 0.00 0.00 0.00 60 1011.0
20260508025530 33 0 0.0 0.0 0.00 0.00 0.00 59 1011.0
20260508025008 34 0 0.0 0.0 0.00 0.00 0.00 58 1011.0
20260508024447 34 0 0.0 0.0 0.00 0.00 0.00 58 1011.0
20260508023926 32 0 0.0 0.0 0.00 0.00 0.00 63 1011.0
20260508023404 32 0 0.0 0.0 0.00 0.00 0.00 64 1011.0
20260508022842 32 0 0.0 0.0 0.00 0.00 0.00 66 1011.0
20260508022320 32 0 0.0 0.0 0.00 0.00 0.00 67 1011.0
20260508021758 32 0 0.0 0.0 0.00 0.00 0.00 67 1011.0
20260508021236 32 0 0.0 0.0 0.00 0.00 0.00 68 1011.0
20260508020713 32 0 0.0 0.0 0.00 0.00 0.00 67 1011.0
20260508020151 32 0 0.0 0.0 0.00 0.00 0.00 67 1011.0
20260508015629 32 0 0.0 0.0 0.00 0.00 0.00 67 1011.0
20260508015107 31 0 0.0 0.0 0.00 0.00 0.00 69 1011.0
20260508014545 32 0 0.0 0.0 0.00 0.00 0.00 67 1011.0
20260508014023 32 0 0.0 0.0 0.00 0.00 0.00 67 1010.0
20260508013501 32 0 0.0 0.0 0.00 0.00 0.00 68 1010.0
20260508012939 31 0 0.0 0.0 0.00 0.00 0.00 71 1010.0
20260508012417 31 0 0.0 0.0 0.00 0.00 0.00 71 1010.0
20260508012143 31 0 0.0 0.0 0.00 0.00 0.00 72 1010.0
20260508011621 31 0 0.0 0.0 0.00 0.00 0.00 74 1010.0
20260508011449 31 0 0.0 0.0 0.00 0.00 0.00 74 1010.0
20260508010927 30 0 0.0 0.0 0.00 0.00 0.00 77 1010.0
20260508010405 30 0 0.0 0.0 0.00 0.00 0.00 77 1010.0
20260508005842 30 0 0.0 0.0 0.00 0.00 0.00 77 1010.0
20260508005400 30 0 0.0 0.0 0.00 0.00 0.00 77 1010.0
20260508004838 30 0 0.0 0.0 0.00 0.00 0.00 77 1010.0
20260508004316 30 0 0.0 0.0 0.00 0.00 0.00 78 1010.0
20260508003754 30 0 0.0 0.0 0.00 0.00 0.00 77 1010.0
20260508003447 30 0 0.0 0.0 0.00 0.00 0.00 77 1010.0
20260508002925 30 0 0.0 0.0 0.00 0.00 0.00 78 1010.0
20260508002635 30 0 0.0 0.0 0.00 0.00 0.00 78 1010.0
20260508002113 29 0 0.0 0.0 0.00 0.00 0.00 80 1010.0
20260508001552 29 0 0.0 0.0 0.00 0.00 0.00 79 1010.0
20260508001029 28 0 0.0 0.0 0.00 0.00 0.00 82 1010.0
20260508000507 28 0 0.0 0.0 0.00 0.00 0.00 83 1009.0
20260507235951 28 0 0.0 0.0 0.00 0.00 0.00 84 1009.0
20260507235423 28 0 0.0 0.0 0.00 0.00 0.00 83 1009.0
20260507234901 29 0 0.0 0.0 0.00 0.00 0.00 81 1009.0
20260507234339 28 0 0.0 0.0 0.00 0.00 0.00 82 1009.0
20260507234045 28 0 0.0 0.0 0.00 0.00 0.00 82 1009.0
20260507233523 28 0 0.0 0.0 0.00 0.00 0.00 83 1009.0
20260507233001 28 0 0.0 0.0 0.00 0.00 0.00 85 1009.0
20260507232411 27 0 0.0 0.0 0.00 0.00 0.00 88 1009.0
20260507231849 27 0 0.0 0.0 0.00 0.00 0.00 90 1009.0
20260507231327 27 0 0.0 0.0 0.00 0.00 0.00 91 1009.0
20260507230805 27 0 0.0 0.0 0.00 0.00 0.00 92 1009.0
20260507230243 26 0 0.0 0.0 0.00 0.00 0.00 93 1009.0
20260507225721 26 0 0.0 0.0 0.00 0.00 0.00 93 1009.0
20260507225540 26 0 0.0 0.0 0.00 0.00 0.00 93 1009.0
20260507225018 26 0 0.0 0.0 0.00 0.00 0.00 93 1009.0
20260507224456 26 0 0.0 0.0 0.00 0.00 0.00 93 1009.0
20260507223935 26 0 0.0 0.0 0.00 0.00 0.00 93 1009.0
20260507223412 26 0 0.0 0.0 0.00 0.00 0.00 93 1009.0
20260507222826 26 0 0.0 0.0 0.00 0.00 0.00 93 1009.0
20260507222306 26 0 0.0 0.0 0.00 0.00 0.00 93 1009.0
20260507221742 26 0 0.0 0.0 0.00 0.00 0.00 93 1009.0
20260507221220 26 0 0.0 0.0 0.00 0.00 0.00 93 1009.0
20260507220658 26 0 0.0 0.0 0.00 0.00 0.00 92 1009.0
20260507220136 26 0 0.0 0.0 0.00 0.00 0.00 92 1009.0
20260507215614 26 0 0.0 0.0 0.00 0.00 0.00 92 1009.0
20260507215052 26 0 0.0 0.0 0.00 0.00 0.00 93 1008.0
20260507214530 26 0 0.0 0.0 0.00 0.00 0.00 93 1008.0
20260507214241 26 0 0.0 0.0 0.00 0.00 0.00 92 1008.0
20260507213719 26 0 0.0 0.0 0.00 0.00 0.00 92 1008.0
20260507213157 26 0 0.0 0.0 0.00 0.00 0.00 92 1008.0
20260507212635 26 0 0.0 0.0 0.00 0.00 0.00 92 1008.0
20260507212113 26 0 0.0 0.0 0.00 0.00 0.00 92 1008.0
20260507211551 26 0 0.0 0.0 0.00 0.00 0.00 92 1008.0
20260507211029 26 0 0.0 0.0 0.00 0.00 0.00 92 1008.0
20260507210507 26 0 0.0 0.0 0.00 0.00 0.00 92 1008.0
20260507205945 26 0 0.0 0.0 0.00 0.00 0.00 91 1008.0
20260507205423 26 0 0.0 0.0 0.00 0.00 0.00 91 1008.0
20260507204901 26 0 0.0 0.0 0.00 0.00 0.00 91 1008.0
20260507204620 27 0 0.0 0.0 0.00 0.00 0.00 91 1008.0
20260507204057 27 0 0.0 0.0 0.00 0.00 0.00 91 1008.0
20260507203535 27 0 0.0 0.0 0.00 0.00 0.00 91 1008.0
20260507203014 27 0 0.0 0.0 0.00 0.00 0.00 91 1008.0
20260507202452 27 0 0.0 0.0 0.00 0.00 0.00 91 1008.0
20260507201929 27 0 0.0 0.0 0.00 0.00 0.00 90 1008.0
20260507201407 27 0 0.0 0.0 0.00 0.00 0.00 90 1008.0
20260507200845 27 0 0.0 0.0 0.00 0.00 0.00 90 1008.0
20260507200323 27 0 0.0 0.0 0.00 0.00 0.00 90 1008.0
20260507195801 27 0 0.0 0.0 0.00 0.00 0.00 90 1008.0
20260507195305 27 0 0.0 0.0 0.00 0.00 0.00 90 1008.0
20260507194740 27 0 0.0 0.0 0.00 0.00 0.00 89 1009.0
20260507194219 27 0 0.0 0.0 0.00 0.00 0.00 89 1009.0
20260507193658 27 0 0.0 0.0 0.00 0.00 0.00 89 1009.0
20260507193134 27 0 0.0 0.0 0.00 0.00 0.00 89 1009.0
20260507192612 27 0 0.0 0.0 0.00 0.00 0.00 88 1009.0
20260507192050 27 0 0.0 0.0 0.00 0.00 0.00 88 1009.0
20260507191637 27 0 0.0 0.0 0.00 0.00 0.00 89 1009.0
20260507191212 27 0 0.0 0.0 0.00 0.00 0.00 88 1009.0
20260507190650 27 0 0.0 0.0 0.00 0.00 0.00 89 1009.0
20260507190128 27 0 0.0 0.0 0.00 0.00 0.00 89 1009.0
20260507185914 27 0 0.0 0.0 0.00 0.00 0.00 89 1009.0
20260507185352 27 0 0.0 0.0 0.00 0.00 0.00 89 1009.0
20260507184830 27 0 0.0 0.0 0.00 0.00 0.00 89 1009.0
20260507184308 27 0 0.0 0.0 0.00 0.00 0.00 88 1009.0
20260507183746 27 0 0.0 0.0 0.00 0.00 0.00 88 1009.0
20260507183224 27 0 0.0 0.0 0.00 0.00 0.00 88 1009.0
20260507182702 27 0 0.0 0.0 0.00 0.00 0.00 88 1009.0
20260507182140 27 0 0.0 0.0 0.00 0.00 0.00 88 1009.0
20260507181618 27 0 0.0 0.0 0.00 0.00 0.00 88 1009.0
20260507181330 27 0 0.0 0.0 0.00 0.00 0.00 88 1009.0
20260507180808 27 0 0.0 0.0 0.00 0.00 0.00 88 1009.0
20260507180246 27 0 0.0 0.0 0.00 0.00 0.00 88 1009.0
20260507175724 27 0 0.0 0.0 0.00 0.00 0.00 87 1009.0
20260507175202 27 0 0.0 0.0 0.00 0.00 0.00 87 1009.0
20260507174640 27 0 0.0 0.0 0.00 0.00 0.00 87 1009.0
20260507174118 27 0 0.0 0.0 0.00 0.00 0.00 86 1009.0
20260507173556 27 0 0.0 0.0 0.00 0.00 0.00 86 1009.0
20260507173034 27 0 0.0 0.0 0.00 0.00 0.00 85 1009.0
20260507172512 27 0 0.0 0.0 0.00 0.00 0.00 85 1009.0
20260507172310 27 0 0.0 0.0 0.00 0.00 0.00 85 1009.0
20260507171748 27 0 0.0 0.0 0.00 0.00 0.00 85 1009.0
20260507171226 27 0 0.0 0.0 0.00 0.00 0.00 85 1009.0
20260507170704 27 0 0.0 0.0 0.00 0.00 0.00 84 1009.0
20260507170142 27 0 0.0 0.0 0.00 0.00 0.00 84 1010.0
20260507165620 27 0 0.0 0.0 0.00 0.00 0.00 85 1010.0
20260507165058 27 0 0.0 0.0 0.00 0.00 0.00 84 1010.0
20260507164536 27 0 0.0 0.0 0.00 0.00 0.00 84 1010.0
20260507164014 27 0 0.0 0.0 0.00 0.00 0.00 84 1010.0
20260507163841 27 0 0.0 0.0 0.00 0.00 0.00 84 1010.0
20260507163319 27 0 0.0 0.0 0.00 0.00 0.00 83 1010.0
20260507162757 27 0 0.0 0.0 0.00 0.00 0.00 83 1010.0
20260507162235 28 0 0.0 0.0 0.00 0.00 0.00 82 1010.0
20260507161713 28 0 0.0 0.0 0.00 0.00 0.00 82 1010.0
20260507161151 28 0 0.0 0.0 0.00 0.00 0.00 82 1010.0
20260507160629 28 0 0.0 0.0 0.00 0.00 0.00 82 1010.0
20260507160107 28 0 0.0 0.0 0.00 0.00 0.00 82 1010.0
20260507155545 28 0 0.0 0.0 0.00 0.00 0.00 81 1010.0
20260507155023 28 0 0.0 0.0 0.00 0.00 0.00 82 1010.0
20260507154501 28 0 0.0 0.0 0.00 0.00 0.00 82 1010.0
20260507153939 27 0 0.0 0.0 0.00 0.00 0.00 83 1010.0
20260507153417 27 0 0.0 0.0 0.00 0.00 0.00 83 1010.0
20260507152855 28 0 0.0 0.0 0.00 0.00 0.00 82 1010.0
20260507152350 28 0 0.0 0.0 0.00 0.00 0.00 81 1010.0
20260507151828 28 0 0.0 0.0 0.00 0.00 0.00 81 1010.0
20260507151306 28 0 0.0 0.0 0.00 0.00 0.00 81 1010.0
20260507151049 28 0 0.0 0.0 0.00 0.00 0.00 81 1010.0
20260507150820 28 0 0.0 0.0 0.00 0.00 0.00 81 1010.0
20260507150258 28 0 0.0 0.0 0.00 0.00 0.00 81 1010.0
20260507145736 28 0 0.0 0.0 0.00 0.00 0.00 81 1010.0
20260507145214 28 0 0.0 0.0 0.00 0.00 0.00 81 1010.0
20260507144652 28 0 0.0 0.0 0.00 0.00 0.00 80 1010.0
20260507144130 28 0 0.0 0.0 0.00 0.00 0.00 79 1010.0
20260507143947 28 0 0.0 0.0 0.00 0.00 0.00 80 1010.0
20260507143425 28 0 0.0 0.0 0.00 0.00 0.00 80 1010.0
20260507142903 28 0 0.0 0.0 0.00 0.00 0.00 79 1010.0
20260507142341 28 0 0.0 0.0 0.00 0.00 0.00 79 1010.0
20260507141819 28 0 0.0 0.0 0.00 0.00 0.00 80 1010.0
20260507141257 28 0 0.0 0.0 0.00 0.00 0.00 80 1010.0
20260507140735 28 0 0.0 0.0 0.00 0.00 0.00 80 1010.0
20260507140213 28 0 0.0 0.0 0.00 0.00 0.00 79 1010.0
20260507135651 28 0 0.0 0.0 0.00 0.00 0.00 79 1010.0
20260507135306 28 0 0.0 0.0 0.00 0.00 0.00 79 1010.0
20260507134740 28 0 0.0 0.0 0.00 0.00 0.00 79 1009.0
20260507134218 28 0 0.0 0.0 0.00 0.00 0.00 79 1009.0
20260507133656 28 0 0.0 0.0 0.00 0.00 0.00 79 1009.0
20260507133134 28 0 0.0 0.0 0.00 0.00 0.00 80 1009.0
20260507132612 28 0 0.0 0.0 0.00 0.00 0.00 79 1009.0
20260507132314 28 0 0.0 0.0 0.00 0.00 0.00 79 1009.0
20260507131752 28 0 0.0 0.0 0.00 0.00 0.00 79 1009.0
20260507131230 28 0 0.0 0.0 0.00 0.00 0.00 79 1009.0
20260507130707 28 0 0.0 0.0 0.00 0.00 0.00 79 1009.0
20260507130145 28 0 0.0 0.0 0.00 0.00 0.00 79 1009.0
20260507125623 28 0 0.0 0.0 0.00 0.00 0.00 79 1009.0
20260507125408 28 0 0.0 0.0 0.00 0.00 0.00 79 1009.0
20260507124846 28 0 0.0 0.0 0.00 0.00 0.00 79 1009.0
20260507124324 28 0 0.0 0.0 0.00 0.00 0.00 79 1009.0
20260507123912 28 0 0.0 0.0 0.00 0.00 0.00 79 1008.0
20260507123349 28 0 0.0 0.0 0.00 0.00 0.00 79 1008.0
20260507122827 28 0 0.0 0.0 0.00 0.00 0.00 79 1008.0
20260507122307 28 0 0.0 0.0 0.00 0.00 0.00 79 1008.0
20260507112751 28 0 0.0 0.0 0.00 0.00 0.00 76 1007.0
20260507112229 28 0 0.0 0.0 0.00 0.00 0.00 75 1007.0
20260507111706 28 0 0.0 0.0 0.00 0.00 0.00 76 1007.0
20260507111145 28 0 0.0 0.0 0.00 0.00 0.00 76 1007.0
20260507110830 28 0 0.0 0.0 0.00 0.00 0.00 75 1007.0